Weather History for LHBP - October, 2014

Change the Weather History Date:

Thursday, October 9, 2014

  Actual Average Record
Temperature  
Mean Temperature 61 °F -  
Max Temperature 71 °F 55 °F 78 °F (1997)
Min Temperature 51 °F 38 °F 32 °F (2002)
Degree Days  
Heating Degree Days 4    
Growing Degree Days 11 (Base 50)    
Moisture  
Dew Point 55 °F    
Average Humidity 84    
Maximum Humidity 100    
Minimum Humidity 60    
Precipitation  
Precipitation 0.00 in - - ()
Sea Level Pressure  
Sea Level Pressure 30.07 in    
Wind  
Wind Speed 8 mph ()    
Max Wind Speed 13 mph    
Max Gust Speed -    
Visibility 5.6 miles    
Events      
Averages and records for this station are not official NWS values.
T = Trace of Precipitation, MM = Missing Value Source: Averaged Metar Reports

Daily Weather History Graph

Daily Weather History Graph

Search for Another Location

Airport or City:

Trip Planner

Search our weather history database for the weather conditions in past years. The results will help you decide how hot, cold, wet, or windy it might be!

Date:

Astronomy

Oct. 09, 2014 Rise Set
Actual Time 6:52 AM CEST 6:07 PM CEST
Civil Twilight 6:21 AM CEST 6:37 PM CEST
Nautical Twilight 5:46 AM CEST 7:13 PM CEST
Astronomical Twilight 5:10 AM CEST 7:48 PM CEST
Moon 6:44 PM CEST (10/9) 7:51 AM CEST (10/9)
Length of Visible Light 12h 15m
Length of Day
11h 14m
Full, 99% of the Moon is Illuminated
Oct 9
Full
Oct 15
Last Quarter
Oct 23
New
Oct 31
First Quarter
Nov 6
Full

Hourly Weather History & Observations

Time (CEST) Temp. Dew Point Humidity Pressure Visibility Wind Dir Wind Speed Gust Speed Precip Events Conditions
12:00 AM 57.2 °F 55.4 °F 94% 30.09 in - SE 6.9 mph - N/A   Clear
12:30 AM 57.2 °F 55.4 °F 94% 30.09 in - ESE 6.9 mph - N/A   Clear
1:00 AM 55.4 °F 53.6 °F 94% 30.09 in - East 5.8 mph - N/A   Clear
1:30 AM 55.4 °F 53.6 °F 94% 30.09 in - East 6.9 mph - N/A   Clear
2:00 AM 53.6 °F 53.6 °F 100% 30.09 in - East 8.1 mph - N/A   Clear
2:30 AM 53.6 °F 53.6 °F 100% 30.09 in - East 5.8 mph - N/A   Clear
3:00 AM 53.6 °F 53.6 °F 100% 30.09 in - East 8.1 mph - N/A   Clear
3:30 AM 51.8 °F 51.8 °F 100% 30.09 in - East 6.9 mph - N/A   Clear
4:00 AM 53.6 °F 51.8 °F 94% 30.09 in - East 8.1 mph - N/A   Clear
4:30 AM 51.8 °F 51.8 °F 100% 30.09 in - East 9.2 mph - N/A   Clear
5:00 AM 51.8 °F 51.8 °F 100% 30.09 in - East 9.2 mph - N/A   Clear
5:30 AM 51.8 °F 51.8 °F 100% 30.09 in 6.2 mi East 8.1 mph - N/A   Partly Cloudy
6:00 AM 51.8 °F 51.8 °F 100% 30.09 in 6.2 mi East 6.9 mph - N/A   Scattered Clouds
6:30 AM 51.8 °F 51.8 °F 100% 30.09 in 6.2 mi East 8.1 mph - N/A   Scattered Clouds
7:00 AM 51.8 °F 51.8 °F 100% 30.09 in 5.0 mi East 6.9 mph - N/A   Mostly Cloudy
7:30 AM 53.6 °F 51.8 °F 94% 30.09 in 5.0 mi East 9.2 mph - N/A   Mostly Cloudy
8:00 AM 53.6 °F 53.6 °F 100% 30.09 in 3.1 mi East 9.2 mph - N/A   Mostly Cloudy
8:30 AM 53.6 °F 53.6 °F 100% 30.09 in 3.1 mi East 9.2 mph - N/A   Scattered Clouds
9:00 AM 55.4 °F 53.6 °F 94% 30.12 in 5.0 mi East 10.4 mph - N/A   Mostly Cloudy
9:30 AM 55.4 °F 53.6 °F 94% 30.12 in 5.6 mi East 10.4 mph - N/A   Overcast
10:00 AM 55.4 °F 53.6 °F 94% 30.12 in 6.2 mi ESE 10.4 mph - N/A   Mostly Cloudy
10:30 AM 57.2 °F 55.4 °F 94% 30.12 in 6.2 mi East 9.2 mph - N/A   Scattered Clouds
11:00 AM 59.0 °F 55.4 °F 88% 30.12 in 6.2 mi East 10.4 mph - N/A   Scattered Clouds
11:30 AM 60.8 °F 55.4 °F 82% 30.12 in 6.2 mi East 11.5 mph - N/A   Scattered Clouds
12:00 PM 62.6 °F 57.2 °F 82% 30.09 in 6.2 mi East 10.4 mph - N/A   Partly Cloudy
12:30 PM 64.4 °F 57.2 °F 77% 30.09 in - East 11.5 mph - N/A   Clear
1:00 PM 66.2 °F 57.2 °F 73% 30.09 in - East 12.7 mph - N/A   Clear
1:30 PM 68.0 °F 57.2 °F 68% 30.06 in - East 10.4 mph - N/A   Clear
2:00 PM 69.8 °F 57.2 °F 64% 30.06 in - ESE 11.5 mph - N/A   Clear
2:30 PM 69.8 °F 57.2 °F 64% 30.06 in 6.2 mi ESE 12.7 mph - N/A   Partly Cloudy
3:00 PM 71.6 °F 57.2 °F 60% 30.04 in - ESE 12.7 mph - N/A   Clear
3:30 PM 71.6 °F 57.2 °F 60% 30.04 in - SE 12.7 mph - N/A   Clear
4:00 PM 71.6 °F 57.2 °F 60% 30.04 in - SE 12.7 mph - N/A   Clear
4:30 PM 71.6 °F 57.2 °F 60% 30.04 in 6.2 mi SE 12.7 mph - N/A   Partly Cloudy
5:00 PM 71.6 °F 59.0 °F 64% 30.04 in 6.2 mi SE 12.7 mph - N/A   Partly Cloudy
5:30 PM 68.0 °F 59.0 °F 73% 30.04 in - SE 10.4 mph - N/A   Clear
6:00 PM 66.2 °F 59.0 °F 78% 30.04 in - ESE 10.4 mph - N/A   Clear
6:30 PM 64.4 °F 59.0 °F 83% 30.04 in - ESE 9.2 mph - N/A   Clear
7:00 PM 64.4 °F 57.2 °F 77% 30.04 in - ESE 9.2 mph - N/A   Clear
7:30 PM 66.2 °F 59.0 °F 78% 30.04 in - ESE 10.4 mph - N/A   Clear
8:00 PM 64.4 °F 59.0 °F 83% 30.04 in - ESE 10.4 mph - N/A   Clear
8:30 PM 66.2 °F 57.2 °F 73% 30.04 in - SE 10.4 mph - N/A   Clear
9:00 PM 66.2 °F 57.2 °F 73% 30.04 in - SE 10.4 mph - N/A   Clear
9:30 PM 66.2 °F 57.2 °F 73% 30.04 in - SSE 11.5 mph - N/A   Clear
10:00 PM 66.2 °F 57.2 °F 73% 30.04 in - SSE 11.5 mph - N/A   Clear
10:30 PM 64.4 °F 57.2 °F 77% 30.04 in - SSE 10.4 mph - N/A   Clear
11:00 PM 62.6 °F 57.2 °F 82% 30.04 in - SSE 10.4 mph - N/A   Clear
11:30 PM 62.6 °F 57.2 °F 82% 30.04 in - SE 10.4 mph - N/A   Clear